Vertical_Velocity
0 -4 -1 4 -1 1 3 -7 4 10 7 -8 5 -0 1 14 -3 8 -27 -4 25 6 -6 7 -1 -7 2 4 -5 11 6 -4 -2 -5 -4 -2 -2 -5 -4 -4 -5 -5 -5 -1 -1 -1 -11 0 -3 -14 -12 7 -1 -1
-3 1 3 -1 -1 -0 -3 -0 11 2 -3 -3 -1 -1 5 -9 -8 1 -5 -0 6 11 -0 5 9 8 13 -15 -22 17 -16 -1 -4 -5 -3 -3 -2 -2 -1 -3 1 -8 -11 -11 -13 -14 -6 6 -4 2 -1 -2 5 1
4 1 -2 -4 -2 -1 -3 -2 2 5 -11 -4 2 -7 -7 4 -5 -24 11 17 7 5 -14 17 12 22 9 3 10 -20 6 3 1 2 -4 -1 -4 -4 -3 -5 -2 1 1 -4 -9 -4 -1 3 11 12 7 -2 3 1
1 1 -3 -1 -1 -1 -2 -0 3 1 -0 0 -6 3 -7 6 12 11 -12 -8 13 13 6 17 11 5 9 13 -35 6 -11 2 -7 5 -2 -1 -3 -1 -3 -8 -6 -8 -4 -2 -2 -2 0 2 3 3 1 3 -3 -2
-2 -5 -2 2 4 5 3 2 -2 -8 -5 3 5 -1 10 26 -7 11 3 -12 4 1 2 2 20 6 -3 5 -0 5 -3 -4 0 -3 -2 -2 0 -6 -1 -5 -1 -2 -5 -6 -6 1 -9 6 8 4 -3 -0 2 -1
-0 -1 -7 -3 -1 -2 -4 -2 -1 3 2 2 3 6 15 -0 6 -5 15 -8 -29 -29 19 -3 -1 3 9 2 -2 0 -5 -5 -2 -4 -0 2 3 -6 -3 -1 1 3 1 1 -3 1 -5 2 0 3 -5 -0 1 -2
8 -12 2 -2 -6 4 -2 -1 -0 -2 -3 8 -3 5 7 -5 2 -6 10 32 32 27 16 -4 -3 -1 5 5 4 5 3 4 -3 1 -1 -1 0 -6 -1 -1 2 4 1 0 3 -5 1 8 -1 1 0 -0 1 -1
-8 -3 -11 6 -8 2 -3 -3 -1 -8 -1 -4 4 7 -2 11 6 10 1 -13 -5 13 3 -3 -4 -4 4 -1 -3 2 2 1 -1 -0 1 -2 -1 -1 -2 4 3 3 0 -1 -0 2 -3 -0 1 -2 0 1 -2 -4
0 -2 -1 3 5 4 -1 -9 -3 4 10 17 19 1 19 -3 -11 -27 -6 4 17 -6 -5 -3 -3 -3 1 0 2 -2 1 -3 3 -2 -0 -6 -1 -1 -1 -1 1 5 -3 1 4 0 1 -3 -3 -2 1 3 -3 0
5 0 3 -1 -0 7 10 13 9 7 37 10 -15 -0 14 12 18 12 12 -5 -8 -4 -2 -3 1 -2 -2 -0 1 -4 0 -1 -2 -6 1 -3 1 5 4 4 2 4 -1 -4 -9 3 0 -0 -1 2 -0 -0 -0 -1
8 1 -2 4 8 5 0 -4 -10 -15 3 12 -0 1 18 -7 -5 -6 -2 -5 0 -3 -0 1 -1 -1 5 -4 -1 -0 -1 -1 -2 -7 -9 -1 0 2 4 -3 2 0 6 4 1 -0 4 -5 -6 -3 0 0 -0 -0
-2 -0 1 1 1 4 3 1 -2 -4 -5 -4 -36 0 -2 -5 -6 -9 0 -5 -3 2 -2 -1 7 -5 1 3 -4 1 -2 -4 -1 -1 -3 0 1 8 -2 2 4 -0 -1 -1 3 -3 -0 -3 -0 -1 -0 -2 -0 -1
3 6 5 7 -0 1 1 13 2 11 22 1 -11 -8 -6 2 -8 -1 -1 -2 -1 -0 -0 -0 -2 -1 -2 -3 -2 -2 -2 -2 -0 -2 -1 -0 3 5 1 2 4 -1 -0 -3 -2 -3 -1 -3 0 1 -3 -0 -0 0
1 1 5 6 11 8 -1 1 6 10 4 -9 -4 -4 -3 2 1 1 1 1 -1 2 5 0 -1 -1 2 -5 -0 -4 -1 -4 1 1 -2 1 1 -0 2 6 3 4 2 -3 -0 1 -0 2 -0 -1 1 1 1 -1
-0 -2 -2 -6 0 5 11 11 5 1 -6 -7 -6 1 -0 1 2 0 1 1 1 3 -2 -1 -1 -2 -0 -2 -1 0 2 1 -2 -0 1 0 -1 3 9 2 0 1 1 -4 -1 2 -0 -0 -0 -1 0 -0 -0 -0
-7 -1 -10 1 -0 -5 -1 -3 -7 -9 -8 -6 -6 -2 -0 -2 -0 -2 -1 -1 1 -2 -1 1 -1 -1 1 -1 -1 1 -2 1 2 0 2 2 3 3 -2 -1 -4 -4 -7 -0 2 1 -1 -0 0 -1 0 1 0 -0
8 -17 4 -3 -6 -3 1 -8 -4 -15 -4 -4 -1 4 1 -0 3 2 1 1 1 -1 -0 -0 -3 -0 -1 -1 -1 1 1 2 1 2 2 4 0 -1 1 3 -2 1 1 0 -0 1 0 1 1 -1 -0 -1 -0 3
-19 -0 3 2 5 7 -5 -16 -8 -4 -1 1 -2 5 0 2 3 1 2 5 -0 -1 -1 0 -1 -2 1 0 1 2 1 3 2 1 2 1 -0 -1 -2 -3 1 0 -1 1 2 1 2 2 2 1 1 3 0 1
-4 -3 -1 -0 -1 -9 -5 -5 -0 -4 3 1 1 -2 -1 1 7 7 4 2 3 1 -0 -3 -4 1 2 1 1 3 3 2 1 4 1 2 -1 -1 -2 2 4 5 4 1 0 -1 2 3 0 -0 -1 1 0 -0
-1 2 -4 -1 0 -8 -5 -3 0 -4 0 -2 -0 -3 -2 4 6 4 2 -1 -3 -5 -6 -2 2 4 4 5 4 5 4 6 2 -0 2 4 6 6 6 5 1 1 1 4 5 4 3 1 2 3 1 0 -0 -1
1 -2 -1 1 -23 -9 -4 2 -0 -4 -0 -2 1 -2 -1 -3 -6 -5 -4 -0 -17 0 0 7 7 5 4 3 3 3 2 3 0 5 2 4 8 3 3 5 4 4 3 5 1 0 2 1 1 0 -2 -1 -1 -1
-3 1 -4 -4 -9 -4 -6 -1 2 6 -5 -0 -1 -1 -1 -2 1 3 -0 -13 0 9 1 3 3 -0 -1 -2 -0 0 3 3 5 5 4 2 1 1 2 5 0 -4 -2 -1 -1 -1 -1 -3 -1 -0 -0 -1 -1 0
-4 -5 -6 -2 -7 -5 -1 -1 -6 -3 -4 0 -1 -2 -1 -1 2 4 -4 1 2 8 6 3 2 2 -1 2 1 -0 0 2 -0 1 1 -0 -0 2 4 -0 1 1 -1 -1 -2 -3 -2 -2 -1 -2 -1 0 0 -0
-1 -12 -8 -3 -4 1 -1 -4 1 -2 -3 -2 -1 -0 -1 -1 2 -5 1 1 8 1 -2 7 9 -0 -1 -1 -3 0 1 2 -1 -1 1 1 -0 -0 0 0 -1 -2 -2 -1 0 -0 1 -0 -1 -0 -1 -2 0 1
-21 -5 -3 -1 0 -4 -2 -1 -1 -3 0 0 -2 -0 -1 1 -2 -1 1 6 -0 -2 1 4 1 -1 -1 1 1 0 1 1 -1 -4 -1 0 -1 -0 -1 -2 -1 -0 1 1 1 0 -1 -2 -1 -2 0 2 1 -2
-6 1 -4 3 1 -3 2 -1 -0 -0 -0 -0 0 -2 -1 -1 -3 2 3 7 -1 -1 0 1 5 0 -1 1 1 1 1 -0 0 -0 0 2 2 1 1 -1 -2 1 -1 -2 -1 -0 0 -0 0 1 -0 -1 -0 1
-2 1 -2 2 3 1 -0 -2 1 -2 -1 0 0 -1 -1 -1 2 6 3 0 -0 -0 1 1 -0 -1 -1 -1 -0 -0 1 2 0 -0 1 1 -0 0 2 2 -1 -2 -2 -0 1 -0 -0 -1 -1 -0 -0 0 0 1
1 -3 -0 4 -3 2 0 -1 -1 1 1 -0 -0 -1 -0 2 4 6 6 5 1 1 0 0 1 2 1 1 2 2 0 0 1 -0 -2 -2 -1 -2 -2 -3 -1 1 0 -1 -3 -3 -2 -1 -0 -0 1 0 -0 1
-2 0 2 -0 0 -2 1 3 2 2 2 2 0 1 3 2 8 6 9 3 9 6 0 1 2 0 -2 -1 -1 0 1 2 4 4 3 2 -0 0 3 1 1 -1 -2 -1 0 0 0 0 0 -1 -0 -1 -2 1
-1 1 1 -0 -2 1 3 1 3 -2 -1 -1 -2 -2 -2 1 4 4 1 0 -3 -2 -1 -0 1 3 2 -1 -2 0 -0 -0 -0 -1 -1 -0 0 0 -1 -3 -3 -1 -1 -1 -1 -1 1 0 -0 -1 -1 1 2 2
-1 1 -1 1 1 2 -1 -1 3 -2 -2 -2 2 -5 -2 -2 2 2 -2 -1 3 4 -3 -2 -1 0 1 0 0 0 -1 -2 -3 -0 -1 -0 -0 -0 -0 -0 1 1 0 -1 -1 -1 -1 -1 -0 0 0 -0 -0 -1
-2 -2 0 -1 2 1 -6 -3 -2 5 4 3 4 0 1 2 -0 -0 0 1 -0 -1 -0 -0 -0 -0 -0 0 -1 -2 -2 -2 -1 -1 -1 0 1 1 1 0 0 1 0 1 1 1 1 -0 -0 0 2 0 1 -1
2 1 0 -1 2 2 1 -2 4 -0 -0 0 1 0 -1 -1 1 3 -1 -1 -1 1 0 0 -0 -0 -1 -1 -1 -1 1 2 1 0 -0 -3 -2 -1 -0 -0 -1 -1 -0 0 0 0 0 1 0 1 0 -0 -1 -0
Height
1222 1232 1243 1253 1261 1270 1278 1284 1290 1297 1304 1315 1326 1337 1346 1354 1365 1373 1376 1384 1388 1386 1381 1384 1389 1391 1399 1399 1413 1421 1438 1431 1435 1447 1457 1465 1473 1465 1469 1465 1474 1482 1494 1504 1503 1508 1503 1465 1467 1478 1477 1475 1477 1478
1231 1239 1247 1255 1263 1271 1279 1286 1293 1300 1308 1317 1327 1336 1345 1357 1364 1369 1374 1380 1387 1393 1384 1382 1382 1387 1392 1393 1399 1412 1417 1417 1420 1435 1446 1455 1469 1469 1468 1480 1457 1476 1470 1482 1482 1486 1466 1464 1466 1468 1470 1473 1476 1477
1236 1243 1250 1258 1266 1273 1281 1289 1296 1303 1310 1318 1327 1335 1342 1349 1357 1365 1372 1381 1388 1391 1384 1384 1381 1385 1392 1393 1395 1402 1412 1411 1416 1420 1432 1448 1460 1463 1472 1472 1457 1454 1456 1469 1469 1463 1462 1462 1465 1467 1469 1472 1473 1475
1243 1249 1255 1262 1269 1277 1284 1291 1297 1304 1312 1319 1327 1334 1341 1350 1359 1367 1373 1382 1386 1385 1369 1368 1380 1382 1387 1390 1391 1401 1404 1410 1415 1421 1429 1444 1453 1447 1461 1455 1459 1455 1455 1461 1465 1461 1465 1467 1467 1467 1469 1471 1471 1474
1247 1253 1258 1264 1271 1278 1285 1292 1298 1306 1312 1318 1325 1332 1339 1353 1364 1373 1378 1380 1383 1388 1385 1376 1377 1383 1388 1390 1395 1400 1404 1409 1415 1423 1432 1440 1437 1444 1448 1450 1457 1448 1454 1465 1474 1461 1462 1469 1468 1468 1468 1471 1472 1474
1249 1256 1261 1266 1273 1280 1286 1293 1299 1306 1311 1319 1323 1333 1344 1352 1364 1376 1372 1371 1378 1380 1383 1383 1386 1385 1388 1394 1399 1403 1409 1413 1416 1420 1428 1430 1433 1438 1455 1463 1449 1446 1448 1450 1457 1458 1460 1466 1467 1468 1468 1472 1473 1475
1249 1256 1258 1267 1274 1279 1287 1294 1301 1306 1310 1317 1326 1334 1343 1353 1361 1364 1364 1361 1370 1374 1371 1382 1389 1390 1393 1398 1403 1406 1409 1413 1417 1422 1427 1430 1433 1435 1448 1454 1447 1447 1449 1452 1456 1457 1464 1466 1468 1470 1471 1473 1475 1477
1245 1253 1256 1265 1272 1279 1286 1293 1302 1307 1313 1320 1328 1338 1351 1359 1363 1365 1369 1369 1371 1376 1377 1392 1400 1398 1399 1402 1406 1407 1410 1414 1419 1424 1427 1430 1434 1436 1447 1442 1444 1447 1450 1453 1455 1455 1458 1463 1467 1471 1473 1475 1477 1479
1251 1256 1261 1264 1271 1280 1288 1294 1303 1311 1319 1327 1337 1347 1354 1359 1367 1367 1370 1371 1371 1376 1382 1392 1401 1405 1403 1405 1407 1410 1412 1422 1424 1426 1427 1431 1442 1443 1438 1440 1443 1446 1448 1453 1456 1458 1462 1465 1469 1473 1476 1478 1480 1483
1260 1264 1269 1275 1280 1286 1294 1301 1309 1316 1324 1331 1341 1347 1345 1350 1353 1360 1364 1366 1371 1378 1382 1392 1398 1403 1405 1407 1413 1417 1418 1425 1432 1430 1427 1432 1444 1441 1442 1443 1445 1447 1448 1450 1454 1461 1464 1469 1472 1475 1477 1480 1482 1484
1275 1276 1281 1286 1293 1299 1306 1314 1321 1328 1336 1341 1343 1345 1351 1360 1364 1365 1370 1375 1378 1385 1387 1394 1396 1402 1405 1409 1414 1417 1421 1423 1429 1431 1433 1441 1443 1440 1442 1445 1447 1447 1449 1452 1455 1459 1463 1467 1471 1475 1478 1480 1482 1484
1292 1292 1293 1296 1303 1310 1316 1323 1329 1336 1342 1347 1351 1358 1361 1366 1369 1374 1381 1382 1382 1391 1395 1397 1396 1402 1405 1408 1410 1417 1422 1425 1432 1429 1433 1434 1438 1437 1442 1447 1448 1450 1452 1455 1458 1461 1465 1470 1473 1475 1478 1480 1482 1483
1311 1309 1310 1313 1316 1321 1328 1337 1340 1346 1348 1351 1357 1365 1372 1382 1385 1391 1391 1392 1394 1399 1400 1399 1402 1403 1407 1409 1412 1416 1419 1428 1428 1434 1434 1438 1440 1441 1444 1448 1450 1453 1457 1459 1462 1465 1469 1471 1474 1476 1478 1480 1481 1483
1322 1323 1324 1326 1329 1334 1339 1344 1346 1348 1349 1355 1366 1382 1386 1393 1400 1397 1394 1398 1402 1401 1398 1399 1403 1407 1408 1412 1416 1420 1428 1428 1431 1435 1433 1439 1443 1443 1446 1449 1451 1455 1458 1462 1466 1469 1471 1473 1474 1477 1479 1481 1482 1482
1330 1331 1333 1336 1339 1342 1347 1348 1349 1351 1354 1366 1376 1390 1395 1399 1398 1398 1398 1399 1401 1400 1400 1404 1408 1412 1413 1416 1420 1425 1428 1426 1427 1432 1438 1440 1442 1444 1446 1449 1453 1457 1461 1465 1468 1470 1472 1474 1476 1477 1480 1481 1482 1482
1337 1338 1340 1344 1346 1347 1348 1351 1352 1355 1370 1383 1393 1398 1399 1399 1400 1400 1399 1401 1401 1402 1406 1409 1412 1413 1417 1418 1418 1421 1421 1429 1436 1438 1438 1440 1442 1444 1447 1452 1456 1459 1462 1466 1468 1470 1472 1475 1476 1478 1479 1480 1481 1481
1342 1345 1350 1351 1351 1352 1354 1355 1362 1377 1390 1398 1404 1404 1404 1406 1407 1406 1406 1406 1406 1407 1409 1410 1412 1419 1420 1420 1427 1432 1434 1437 1437 1438 1440 1442 1443 1446 1450 1454 1458 1461 1464 1466 1468 1470 1472 1475 1476 1477 1478 1479 1480 1479
1350 1354 1356 1357 1357 1357 1359 1366 1381 1394 1404 1409 1409 1410 1409 1409 1410 1409 1408 1406 1406 1408 1411 1415 1418 1421 1425 1427 1435 1439 1439 1440 1440 1441 1442 1445 1447 1451 1453 1457 1460 1463 1465 1467 1469 1471 1473 1475 1476 1477 1478 1479 1478 1478
1358 1359 1359 1359 1358 1359 1370 1385 1390 1404 1413 1414 1416 1416 1416 1417 1416 1414 1412 1411 1411 1411 1415 1422 1430 1437 1441 1445 1445 1442 1442 1443 1444 1445 1446 1449 1451 1453 1455 1458 1461 1462 1464 1467 1469 1470 1472 1473 1474 1475 1476 1476 1475 1474
1362 1361 1360 1360 1360 1364 1381 1396 1400 1408 1417 1421 1421 1422 1422 1422 1422 1419 1417 1416 1415 1418 1428 1440 1448 1451 1450 1450 1448 1446 1445 1447 1447 1448 1450 1451 1453 1455 1457 1459 1460 1463 1464 1466 1469 1470 1471 1472 1473 1473 1473 1473 1472 1471
1366 1365 1365 1364 1364 1376 1393 1403 1409 1415 1420 1423 1424 1424 1427 1427 1426 1425 1425 1427 1427 1440 1449 1454 1455 1455 1454 1452 1451 1450 1448 1448 1449 1450 1451 1453 1455 1456 1458 1460 1462 1464 1466 1468 1470 1471 1472 1472 1473 1472 1471 1471 1470 1468
1370 1370 1369 1371 1380 1392 1404 1410 1415 1419 1422 1426 1426 1428 1432 1434 1433 1435 1439 1440 1452 1458 1459 1459 1458 1458 1456 1455 1454 1453 1453 1452 1450 1450 1452 1454 1455 1457 1460 1462 1464 1466 1468 1469 1470 1471 1472 1472 1472 1471 1469 1468 1467 1465
1375 1375 1379 1386 1393 1405 1420 1418 1420 1424 1428 1430 1431 1434 1437 1439 1439 1441 1449 1459 1464 1465 1464 1463 1462 1462 1460 1460 1458 1457 1456 1456 1455 1456 1458 1459 1460 1462 1463 1464 1466 1467 1468 1469 1470 1470 1471 1470 1469 1468 1466 1465 1463 1461
1381 1386 1396 1403 1411 1420 1423 1425 1426 1430 1433 1434 1436 1442 1444 1444 1444 1450 1460 1468 1471 1469 1468 1467 1466 1465 1464 1463 1462 1462 1462 1462 1461 1462 1463 1464 1464 1465 1467 1467 1468 1469 1470 1470 1470 1469 1468 1467 1465 1464 1462 1461 1459 1457
1394 1413 1416 1421 1424 1426 1430 1433 1434 1436 1440 1439 1442 1446 1447 1446 1450 1457 1464 1471 1473 1472 1471 1471 1470 1469 1469 1469 1468 1467 1467 1467 1466 1465 1467 1467 1468 1469 1469 1469 1469 1470 1470 1469 1468 1467 1465 1463 1462 1460 1459 1457 1455 1453
1419 1431 1433 1434 1437 1436 1437 1440 1442 1444 1443 1445 1449 1449 1448 1448 1457 1467 1472 1476 1475 1475 1474 1473 1473 1472 1471 1471 1470 1470 1469 1469 1469 1469 1469 1470 1470 1470 1469 1469 1469 1469 1468 1466 1465 1463 1461 1460 1458 1456 1454 1453 1452 1451
1434 1441 1442 1441 1441 1441 1443 1444 1443 1444 1449 1451 1452 1450 1450 1452 1468 1475 1478 1478 1478 1477 1476 1475 1474 1473 1473 1473 1473 1472 1472 1472 1471 1471 1471 1471 1471 1471 1471 1470 1469 1468 1466 1464 1462 1459 1458 1456 1454 1452 1450 1449 1448 1446
1444 1446 1446 1447 1445 1446 1447 1447 1449 1453 1455 1456 1454 1460 1464 1468 1478 1481 1481 1481 1479 1478 1478 1477 1476 1476 1475 1475 1474 1474 1473 1473 1473 1473 1472 1471 1470 1469 1469 1468 1466 1464 1461 1459 1458 1456 1454 1452 1450 1448 1446 1445 1443 1442
1449 1450 1450 1449 1449 1451 1455 1455 1458 1462 1463 1460 1461 1467 1474 1479 1482 1481 1481 1480 1480 1479 1479 1479 1478 1478 1477 1476 1476 1475 1475 1475 1475 1474 1472 1471 1470 1469 1467 1465 1463 1461 1459 1457 1455 1453 1452 1449 1447 1445 1443 1442 1440 1439
1453 1451 1451 1452 1455 1459 1463 1463 1464 1465 1465 1465 1466 1472 1477 1480 1481 1481 1481 1480 1480 1480 1480 1480 1479 1479 1478 1478 1477 1476 1476 1475 1474 1473 1471 1470 1468 1466 1464 1461 1460 1458 1456 1454 1451 1449 1447 1445 1443 1441 1439 1438 1437 1435
1455 1454 1454 1456 1460 1464 1464 1464 1465 1466 1467 1468 1468 1470 1475 1480 1483 1483 1482 1483 1483 1482 1481 1481 1480 1480 1480 1479 1478 1477 1475 1474 1472 1471 1469 1467 1465 1463 1461 1458 1456 1454 1452 1449 1447 1445 1443 1441 1439 1437 1435 1434 1432 1429
1459 1460 1459 1460 1463 1465 1465 1465 1466 1466 1468 1470 1473 1475 1477 1480 1484 1486 1486 1485 1484 1483 1482 1482 1481 1481 1480 1479 1478 1476 1475 1473 1471 1468 1466 1464 1462 1459 1457 1454 1452 1449 1447 1445 1443 1441 1439 1436 1435 1433 1432 1429 1428 1425
1461 1462 1462 1462 1463 1465 1466 1466 1465 1468 1471 1474 1477 1478 1478 1482 1486 1489 1488 1486 1486 1485 1484 1483 1482 1481 1480 1478 1476 1474 1472 1471 1468 1465 1462 1459 1457 1454 1452 1449 1447 1444 1442 1440 1438 1435 1433 1432 1430 1429 1427 1425 1422 1420